www.pogodaiklimat.ru

Погода и климат >> Архив погоды >> Мексика >> Tuxtla Gutierrez


ПОГОДА в Tuxtla Gutierrez

  • Прогноз погоды в Tuxtla Gutierrez
  • Монитор погоды в Tuxtla Gutierrez
  • Климат города

АРХИВ ПОГОДЫ в Tuxtla Gutierrez

Время (UTC), дата Ветер
(напр.,м/с)
 
Видим.   Явления Облачность Т
(С)
Тd
(С)
f
(%)
Тe
(С)
Тes
(С)
Комфортность P
(гПа)
Po
(гПа)
Тmin
(С)
Tmax
(С)
R
(мм)
R24
(мм)
S
(см)
03 17.10 СЗ 3 15 км 4/4 1200 м
[St]
+25.4 +22.1 82 +33 +33 очень
душно
1006.9 944.7
06 17.10 З 2 15 км в посл. час дождь 6/6 1000 м
[Sc diur, vesp]
+24.3 +22.5 90 +32 +32 очень
душно
1007.4 944.9 0.2
09 17.10 З 1 15 км дождь 10/0
[As op]
+23.0 +22.3 96 +31 +31 очень
душно
1006.6 943.7 3
12 17.10 штиль 0 15 км в посл. час дождь 9/5 600 м
[St As op]
+22.8 +22.0 95 +31 +31 очень
душно
1007.7 944.5 17
15 17.10 СВ 1 15 км 9/4 500 м
[St Ac trans]
+24.1 +21.7 86 +31 +33 очень
душно
1010.2 946.7
18 17.10 Ю 1 15 км 6/3 700 м
[Cu med, cong Ac trans Cc]
+29.9 +22.7 65 +39 +50 очень
душно
1009.3 946.1 +22.0 +30.7
21 17.10 З 2 15 км 9/4 800 м
[Cu med, cong Ac trans Ci sp]
+31.1 +22.7 61 +41 +44 опасность
перегрева
1005.3 942.7
00 18.10 З 1 15 км слабый дождь 9/4 600 м
[Sc diur, vesp As op]
+25.0 +22.9 88 +33 +33 очень
душно
1006.9 944.3 2
03 18.10 ЮЗ 1 15 км в посл. час дождь 8/4 450 м
[St As op]
+22.7 +21.3 92 +30 +30 очень
душно
1009.8 947.0 5
06 18.10 З 1 15 км {дождь} 8/3 600 м
[Sc diur, vesp Ac trans]
+22.7 +21.6 94 +30 +30 очень
душно
1010.6 947.5 5
09 18.10 С 1 15 км 1/1 840 м
[Sc diur, vesp]
+22.2 +21.2 94 +29 +29 очень
душно
1009.1 945.7
12 18.10 З 1 15 км 3/1 600 м
[Cu hum Cc]
+21.9 +20.7 93 +28 +28 душно 1010.4 946.7 +21.2 +32.7
15 18.10 СЗ 2 15 км 5/4 720 м
[St Ac trans Cs]
+26.6 +20.7 70 +33 +37 очень
душно
1011.9 948.2
18 18.10 СЗ 2 15 км 8/5 900 м
[St Ac trans]
+28.6 +21.4 65 +36 +42 очень
душно
1011.0 947.6 +21.2 +29.6
21 18.10 СЗ 3 15 км 9/5 930 м
[St Ac trans]
+28.8 +21.3 64 +36 +38 очень
душно
1007.4 944.6
00 19.10 ЮЗ 1 15 км дождь 9/5 50 м
[St Ac trans]
+23.8 +23.0 95 +32 +32 очень
душно
1008.9 946.2 12
03 19.10 СЗ 1 15 км {морось} 8/3 240 м
[St Ac und]
+23.6 +21.6 89 +30 +30 очень
душно
1010.7 947.8 2
06 19.10 В 1 15 км слабая морось 8/8 <50 м
[St]
+22.8 +22.5 98 +31 +31 очень
душно
1011.4 948.2 +21.2 +31.0 0.4
09 19.10 З 1 15 км 8/4 30 м
[St Ac trans Cs]
+22.0 +21.7 98 +29 +29 очень
душно
1010.1 946.6
12 19.10 Ю 1 15 км 6/3 120 м
[St Ac und]
+21.8 +20.9 95 +28 +28 душно 1010.9 947.2 +21.2 +31.0
15 19.10 Ю 1 15 км 9/3 500 м
[Cu hum Ac trans]
+25.0 +21.2 79 +32 +34 очень
душно
1010.8 948.8
18 19.10 З 1 15 км 9/5 600 м
[Cu med, cong Ac As]
+28.8 +22.4 68 +38 +42 очень
душно
1011.0 947.5 +21.2 +30.0
21 19.10 СЗ 3 15 км 8/5 720 м
[Cu med, cong Ac As]
+29.1 +23.3 71 +39 +42 очень
душно
1007.0 944.2
00 20.10 З 2 10 км слабый дождь {морось} 10/0
[Ac As Cs]
+25.6 +23.0 86 +34 +34 очень
душно
1008.0 945.3 0.1
03 20.10 З 3 20 км слабый дождь 10/3 450 м
[Cu hum As op]
+23.2 +22.1 94 +32 +32 очень
душно
1011.2 948.3 7
12 20.10 штиль 0 15 км 8/1 300 м
[Cu hum Ac As]
+21.5 +20.6 95 +27 +27 душно 1017.0 947.6 +21.0 +32.0
15 20.10 штиль 0 25 км 5/3 660 м
[Sc Ac und]
+23.8 +21.6 87 +30 +36 очень
душно
1012.8 948.9
18 20.10 В 1 15 км 8/4 660 м
[Cu med, cong Ac und]
+27.7 +23.7 79 +38 +44 очень
душно
1011.2 947.6 +21.0 +28.2
21 20.10 СЗ 1 15 км 8/8 660 м
[Cu med, cong]
+29.8 +23.0 67 +40 +40 очень
душно
1007.3 944.3
00 21.10 ЮЗ 1 15 км 10/4 1000 м
[Sc diur, vesp As op]
+25.2 +20.2 74 +31 +31 очень
душно
1008.3 945.5 +21.0 +32.5
03 21.10 штиль 0 15 км {морось} 4/1 700 м
[Cu med, cong As op]
+23.4 +22.8 96 +33 +33 очень
душно
1012.2 948.8 2
06 21.10 В 1 15 км {морось} 5/3 360 м
[Frnb Ac trans]
+22.2 +21.6 96 +29 +29 очень
душно
1011.3 948.7 +32.5 3
09 21.10 штиль 0 15 км 4/1 500 м
[Frnb Ci ing]
+21.6 +20.4 93 +27 +27 душно 1010.8 947.4
12 21.10 штиль 0 15 км 9/4 450 м
[Frnb As op]
+21.7 +21.0 96 +28 +28 душно 1011.8 948.0 +21.1 +32.5
15 21.10 В 1 15 км 6/6 540 м
[Cu med, cong]
+23.9 +21.7 88 +31 +34 очень
душно
1014.2 950.2
18 21.10 Ю 2 15 км 4/4 700 м
[Cu med, cong]
+29.9 +21.0 59 +37 +47 очень
душно
1011.1 947.6 +21.1 +30.5
21 21.10 СЗ 2 15 км слабая морось {дождь} 6/6 840 м
[Cu med, cong]
+27.7 +23.9 80 +38 +42 очень
душно
1008.2 945.2 2
00 22.10 С 3 15 км 4/4 600 м
[Sc diur, vesp]
+25.5 +22.8 85 +34 +34 очень
душно
1009.4 946.6 +21.1 +32.5
03 22.10 С 3 15 км ясно +24.1 +20.4 80 +30 +30 очень
душно
1010.7 947.9
06 22.10 Ю 1 15 км ясно +22.6 +20.2 86 +29 +29 очень
душно
1011.4 948.3 +30.5
12 22.10 З 1 15 км 4/0 2000 м
[Ac trans]
+21.3 +19.9 92 +26 +26 душно 1012.6 948.8 +20.8 +32.5
15 22.10 Ю 2 15 км 3/3 800 м
[Cu hum]
+26.5 +21.0 72 +33 +38 очень
душно
1013.9 950.0
18 22.10 З 2 15 км 4/4 900 м
[Cu med, cong]
+30.2 +23.9 69 +42 +52 опасность
перегрева
1011.7 948.3 +20.6 +31.3
21 22.10 З 2 15 км 5/5 900 м
[Cu med, cong]
+30.9 +22.8 62 +41 +45 опасность
перегрева
1009.3 946.4
00 23.10 С 4 15 км 4/3 600 м
[Sc diur, vesp Ac trans]
+26.3 +22.3 79 +34 +34 очень
душно
1009.5 946.9 +20.6 +31.6
03 23.10 З 3 15 км 4/4 1000 м
[Sc diur, vesp]
+24.7 +22.3 87 +32 +32 очень
душно
1011.9 949.2
06 23.10 З 1 15 км 3/3 1000 м
[Sc diur, vesp]
+24.2 +21.5 85 +31 +31 очень
душно
1011.8 948.9 +20.6 +31.6
09 23.10 З 1 15 км 6/0 2000 м
[Ac trans]
+23.6 +21.4 87 +30 +30 очень
душно
1012.0 948.2
12 23.10 штиль 0 15 км 3/0 2000 м
[Ac trans]
+22.7 +21.1 91 +30 +30 очень
душно
1012.9 949.3 +21.5 +31.6
15 23.10 В 2 15 км 1/1 660 м
[Cu med, cong]
+25.7 +21.2 76 +32 +39 очень
душно
1014.7 951.0
18 23.10 ЮВ 1 15 км 3/3 800 м
[Cu med, cong]
+31.3 +20.9 54 +39 +52 опасность
солнечного
удара
1012.5 949.2 +21.5 +32.1
21 23.10 СЗ 2 15 км 4/4 900 м
[Cu med, cong]
+31.3 +21.1 55 +39 +44 очень
душно
1009.6 946.9
00 24.10 С 3 15 км 8/5 600 м
[Cu med, cong Ac trans]
+26.5 +21.5 74 +34 +34 очень
душно
1009.9 947.4 +21.5 +33.1

 

Местоположение метеостанции Tuxtla Gutierrez (Мексика): широта 16.75 долгота -93.13 высота над уровнем моря 576 м.

В архиве по умолчанию представлена погода в Tuxtla Gutierrez за последнюю неделю. Архивные данные за месяц целиком и за предыдущие месяцы, начиная с января 2011 года, Вы можете получить, выбрав интересующий диапазон дат из раскрывающегося списка и нажав кнопку "Ввод!".


*Определитесь, кто Вы:
робот инопланетянин человек

Внимание! Время в таблицах - всемирное. Для получения местного времени необходимо прибавить поправку, которая в Tuxtla Gutierrez равна -6 ч.

Смотрите также архив погоды в соседних городах и на ближайших метеорологических станциях:

Погода в Sn. Cristobal Las Casas (Мексика) (53 км)
Погода в Arriaga (Мексика) (100 км)
Погода в Comitan (Мексика) (120 км)
Погода в Villahermosa (Мексика) (138 км)
Погода в Coatzacoalcos (Мексика) (205 км)
Погода в Tapachula City (Мексика) (224 км)
Погода в Salina Cruz (Мексика) (228 км)
Погода в Huehuetenango (Гватемала) (239 км)
Погода в Flores (Гватемала) (347 км)
Погода в Guatemala (Гватемала) (370 км)

Пояснения к столбцам:

Ветер - указаны скорость ветра в м/с - средняя за 10 мин, порывы в срок и между сроками (в фигурных скобках) и направление, откуда дует ветер: С - северный, СВ - северо-восточный, В - восточный, ЮВ - юго-восточный, Ю - южный, ЮЗ - юго-западный, З - западный, СЗ - северо-западный.
Видимость - горизонтальная дальность видимости в метрах или километрах. При видимости от 1 до 10 км при отсутствии осадков обычно наблюдается дымка, при ухудшении видимости до 1 км и менее - туман. В сухую погоду видимость может ухудшаться дымом, пылью или мглою.
Явления - указаны атмосферные явления, наблюдавшиеся в срок или в последний час перед сроком; фигурными скобками обозначены явления, наблюдавшиеся между сроками (за 1-3 часа до срока); квадратными скобками обозначены град или гололедные отложения с указанием их диаметра в мм.
Облачность - указаны через наклонную черту общая и нижняя облачность в баллах и высота нижней границы облаков в метрах; квадратными скобками обозначены формы облаков: Ci - перистые, Cs - перисто-слоистые, Cc - перисто-кучевые, Ac - высококучевые, As - высокослоистые, Sc - слоисто-кучевые, Ns - слоисто-дождевые, Cu - кучевые, Cb - кучево-дождевые. Подробнее классификацию облаков см. в Атласе облаков (PDF).
T - Температура воздуха - температура, измеренная на высоте 2 м над землей.
Td - Температура точки росы - температура, при понижении до которой содержащийся в воздухе водяной пар достигнет насыщения.
f - Относительная влажность воздуха - влажноcть воздуха, измеренная на высоте 2 м над землей.
Te - Эффективная температура - температура, которую ощущает одетый по сезону человек в тени. Характеристика душности погоды. При расчете учитывается влияние влажности воздуха и скорости ветра на теплоощущения человека.
Tes - Эффективная температура на солнце - температура, которую ощущает человек, с поправкой на солнечный нагрев. Характеристика знойности погоды. Зависит от высоты солнца над горизонтом, облачности и скорости ветра. Ночью, в пасмурную погоду, а также при ветре 12 м/с и более поправка равна нулю.
P - Атмосферное давление - приведенное к уровню моря атмосферное давление.
Po - Атмосферное давление - измеренное на уровне метеостанции атмосферное давление.
Tmin - Минимальная температура - минимум температуры воздуха на высоте 2 м над землей.
Tmax - Максимальная температура - максимум температуры воздуха на высоте 2 м над землей.
R - Количество осадков - Количество выпавших осадков за период времени, мм. При наведении курсора мыши на число - период времени, за который выпало указанное количество осадков.
R24 - Количество осадков - Количество выпавших осадков за 24 часа, мм.
S - Снежный покров - Высота снежного покрова, см. При наведении курсора мыши на число - состояние снежного покрова и степень покрытия местности в баллах.